STARLINK-4534 (53395 NORAD) Tracking and Keplerian Element Data

This shows tracking and keplerian element data for the satellite.

Feedback or suggestion? Click here.




ElementValue
Catalog53395
NameSTARLINK-4534
Epoch Orbit1618
Epoch Day325.19187702
Epoch Year2022
RAAN131.3318
Inclination53.2184
Eccentricity0.0002105
Argument of Perigee45.2323
Mean Anonmoly314.8841
Mean Motion15.08847901
Decay Rate2.4E-07
L11 53395U 22097H 22325.19187702 .00000024 00000+0 19637-4 0 9999
L22 53395 53.2184 131.3318 0002105 45.2323 314.8841 15.08847901 16185



Live tracking and technical data element details for STARLINK-4534 (NORAD 53395). STARLINK-4534 can be tracked NOW for your location showing map with azimuth and elevation plus other details from your city location.







IsCatalogInMostPopularTable: catalog: 53395, numindb: 8
Update: records affected: 1



GetName: 53395 STARLINK-4534

Hit Count: updated at: Thu, 08 Dec 2022 10:37:27 GMT